FLOCK 4BE-6 (60516 NORAD) Tracking and Keplerian Element Data

This shows tracking and keplerian element data for the satellite.

Feedback or suggestion? Click here.




ElementValue
Catalog60516
NameFLOCK 4BE-6
Epoch Orbit866
Epoch Day286.87032319
Epoch Year2024
RAAN1.619
Inclination97.4395
Eccentricity0.0003915
Argument of Perigee320.8802
Mean Anonmoly39.2149
Mean Motion15.20254374
Decay Rate0.00015295
L11 60516U 24149BA 24286.87032319 .00015295 00000+0 70704-3 0 9995
L22 60516 97.4395 1.6190 0003915 320.8802 39.2149 15.20254374 8666



Live tracking and technical data element details for FLOCK 4BE-6 (NORAD 60516). FLOCK 4BE-6 can be tracked NOW for your location showing map with azimuth and elevation plus other details from your city location.







IsCatalogInMostPopularTable: catalog: 60516, numindb: 5
Update: records affected: 1



GetName: 60516 FLOCK 4BE-6

Hit Count: updated at: Wed, 04 Dec 2024 18:38:51 GMT